Weather in Гэтргян

Azerbaijan     40°22′58″N   50°19′01″E
temp.,
°C
wind,
m/s
gust,
m/s
humid.,
%
clouds,
%
prec.,
mm/h
press.,
hPa
HPBL,
m
1 march, mon
mon101:00+8nnw810820 0.0 1017281
04:00+7n710900 0.0 1017308
07:00+7n79907 0.0 1020386
10:00+8nne8108619 0.0 1022558
13:00+7nne9118099 0.0 1024670
16:00+7n9117598 0.1 1025997
19:00+6n9107572 0.0 1026844
22:00+6n897561 0.0 1027647
2 march, tue
tue201:00+5nne797573 0.0 1028565
04:00+5nne677584 0.0 1027479
07:00+5nne567494 0.0 1029479
10:00+6ne456997 0.0 1030710
13:00+7ne336689 0.0 1029761
16:00+7ene336648 0.0 1027646
19:00+6ese337113 0.0 1027430
22:00+6sse34748 0.0 1026244
3 march, wed
wed301:00+6ssw57780 0.0 1025332
04:00+6ssw69820 0.0 1022452
07:00+6sw812800 0.0 1020535
10:00+8sw1113700 0.0 1020798
13:00+10wsw710570 0.0 1018583
16:00+10w58530 0.0 1016662
19:00+7nnw67770 0.0 1016344
22:00+7nnw912810 0.0 1019687
4 march, thu
thu401:00+7n9118028 0.0 1019635
04:00+7nnw9128031 0.0 1022666
07:00+6n1012762 0.0 1025696
10:00+7n1011673 0.0 10281055
13:00+7n89638 0.0 1029962
16:00+7nne66594 0.0 1028850
19:00+6e335921 0.0 1028832
22:00+6ese456237 0.0 1028476
5 march, fri
fri501:00+6se676886 0.0 1025411
04:00+6se697377 0.0 1023405
07:00+7se6866100 0.0 1022438
10:00+6sse5672100 0.4 1022720
13:00+5e3384100 2.1 1022339
16:00+6e5477100 2.1 1021357
19:00+6ese3376100 0.0 1022234
22:00+6s3379100 0.0 1023149